User: anonymous   Login
Location: Zagreb
(45.8000°N, 16.0000°E)
Time: 22:08:22
(UTC+02:00)
Language:

SR - Orbit

View from above orbital plane
View from above orbital plane
View from above satellite
View from above satellite

Ground track
Ground track

The orbit data is extracted from the following two-line orbital elements,

1    46U 60007B   20269.04360806  .00000024  00000-0  27965-4 0  9998
2    46  66.6899 137.4409 0203781  55.8323 306.1919 14.49316793153534
Epoch (UTC): 25 September 2020 01:02:47
Eccentricity: 0.0203781
inclination: 66.6899°
perigee height: 583 km
apogee height: 872 km
right ascension of ascending node: 137.4409°
argument of perigee: 55.8323°
revolutions per day: 14.49316793
mean anomaly at epoch: 306.1919°
orbit number at epoch: 15353

The dashed part of the orbit path shows where the satellite is in the earth's shadow,  

DLR